Change the Weather History Date:

Monday, December 5, 2011

  Actual Average Record
Temperature  
Mean Temperature 3 °F 25 °F  
Max Temperature 14 °F 38 °F 64 °F (2012)
Min Temperature -9 °F 12 °F -18 °F (2013)
Degree Days  
Heating Degree Days 62 40  
Month to date heating degree days 264 197  
Since 1 July heating degree days 1890 2019  
Cooling Degree Days 0 0  
Month to date cooling degree days 0 0  
Year to date cooling degree days 641 486  
Moisture  
Dew Point -3 °F    
Average Humidity 68    
Maximum Humidity 78    
Minimum Humidity 58    
Precipitation  
Precipitation 0.00 in 0.01 in 0.07 in (2000)
Month to date precipitation T 0.07  
Year to date precipitation 13.15 13.06  
Sea Level Pressure  
Sea Level Pressure 30.54 in    
Wind  
Wind Speed 5 mph (WSW)    
Max Wind Speed 16 mph    
Max Gust Speed 21 mph    
Visibility 10 miles    
Events      
T = Trace of Precipitation, MM = Missing Value Source: NWS Daily Summary

Daily Weather History Graph

Daily Weather History Graph

Search for Another Location

Airport or City:

Trip Planner

Search our weather history database for the weather conditions in past years. The results will help you decide how hot, cold, wet, or windy it might be!

Date:

Astronomy

Dec. 05, 2011 Rise Set
Actual Time 7:16 AM MST 4:27 PM MST
Civil Twilight 6:44 AM MST 4:59 PM MST
Nautical Twilight 6:09 AM MST 5:34 PM MST
Astronomical Twilight 5:34 AM MST 6:09 PM MST
Moon 1:30 PM MST (12/5) 2:35 AM MST (12/5)
Length of Visible Light 10h 15m
Length of Day
9h 11m
Waxing Gibbous, 80% of the Moon is Illuminated
Dec 5
Waxing Gibbous
Dec 10
Full
Dec 17
Last Quarter
Dec 24
New
Dec 31
First Quarter

Hourly Weather History & Observations

Time (MST) Temp. Windchill Dew Point Humidity Pressure Visibility Wind Dir Wind Speed Gust Speed Precip Events Conditions
12:53 AM 9.0 °F -5.1 °F -0.0 °F 67% 30.60 in 10.0 mi NNW 10.4 mph - N/A   Overcast
1:53 AM 9.0 °F -6.6 °F -0.0 °F 67% 30.61 in 10.0 mi NW 12.7 mph - N/A   Overcast
2:53 AM 9.0 °F -5.9 °F -0.0 °F 67% 30.62 in 10.0 mi NNW 11.5 mph - N/A   Overcast
3:53 AM 9.0 °F -4.2 °F -0.0 °F 67% 30.60 in 10.0 mi NNW 9.2 mph - N/A   Overcast
4:53 AM 9.0 °F -4.2 °F -0.9 °F 64% 30.60 in 10.0 mi NNW 9.2 mph - N/A   Overcast
5:53 AM 9.0 °F -0.9 °F -0.9 °F 64% 30.60 in 10.0 mi West 5.8 mph - N/A   Overcast
6:53 AM 8.1 °F -4.3 °F -0.9 °F 67% 30.62 in 10.0 mi WNW 8.1 mph - N/A   Overcast
7:53 AM 7.0 °F 0.1 °F -2.0 °F 67% 30.61 in 10.0 mi WSW 3.5 mph - N/A   Overcast
8:53 AM 8.1 °F 1.4 °F -0.9 °F 67% 30.61 in 10.0 mi SW 3.5 mph - N/A   Scattered Clouds
9:53 AM 9.0 °F -2.2 °F -0.9 °F 64% 30.61 in 10.0 mi South 6.9 mph - N/A   Clear
10:53 AM 10.9 °F 4.7 °F -0.0 °F 61% 30.58 in 10.0 mi Variable 3.5 mph - N/A   Clear
11:53 AM 12.0 °F 4.1 °F -0.0 °F 59% 30.54 in 10.0 mi South 4.6 mph - N/A   Clear
12:53 PM 12.9 °F 5.2 °F 1.0 °F 59% 30.52 in 10.0 mi South 4.6 mph - N/A   Clear
1:53 PM 12.9 °F - -0.0 °F 56% 30.49 in 10.0 mi Calm Calm - N/A   Clear
3:53 PM 10.9 °F 1.4 °F -0.0 °F 61% 30.48 in 10.0 mi SSW 5.8 mph - N/A   Clear
4:53 PM 5.0 °F -6.9 °F -2.9 °F 70% 30.48 in 10.0 mi SW 6.9 mph - N/A   Clear
5:53 PM 3.9 °F - -4.0 °F 70% 30.47 in 10.0 mi Calm Calm - N/A   Clear
6:53 PM -0.0 °F -7.9 °F -7.1 °F 72% 30.49 in 10.0 mi SE 3.5 mph - N/A   Clear
7:53 PM -2.9 °F -11.2 °F -9.0 °F 75% 30.50 in 10.0 mi SSE 3.5 mph - N/A   Clear
8:53 PM -4.0 °F -14.6 °F -9.9 °F 76% 30.48 in 10.0 mi SSE 4.6 mph - N/A   Clear
9:53 PM -5.1 °F - -11.0 °F 76% 30.46 in 10.0 mi Calm Calm - N/A   Clear
10:53 PM -6.0 °F - -13.0 °F 72% 30.44 in 10.0 mi Calm Calm - N/A   Clear
11:53 PM -9.0 °F - -14.1 °F 79% 30.43 in 10.0 mi Calm Calm - N/A   Clear